Home > Weather > Tallahassee > Past weeks

Flag for USA Past Weather in Tallahassee, Florida, USA — Yesterday and Last 2 Weeks

Now
86 °F

Scattered clouds.


Feels Like: 93 °F
Forecast: 75 / 93 °F
Wind: No wind

Location: Tallahassee Regional Airport

Current Time: Jul 23, 2016 at 11:14:46 AM

Latest Report: Jul 23, 2016 at 9:53 AM


Visibility: 10 mi

Pressure: 30.03 "Hg

Humidity: 65%

Dew Point: 73 °F

Location of TallahasseeLocation

Past Weather in Tallahassee — Graph

°F

Tallahassee Temperature Yesterday

Maximum temperature yesterday: 93 °F (at 2:53 PM)
Minimum temperature yesterday: 76 °F (at 5:53 AM)
Average temperature yesterday: 82 °F

High & Low Weather Summary for the Past Weeks

 TemperatureHumidityPressure
High98 °F (Jul 8, 2:53 PM)100% (Jul 15, 12:53 AM)30.24 "Hg (Jul 15, 12:53 AM)
Low73 °F (Jul 13, 1:53 AM)36% (Jul 8, 2:53 PM)29.98 "Hg (Jul 9, 5:53 PM)
Average83 °F74%30.10 "Hg
* Reported Jul 8 9:53 AM — Jul 23 9:53 AM, Tallahassee, Weather by CustomWeather, © 2016

Note: Actual official high and low records may vary slightly from our data, if they occured in-between our weather recording intervals... More about our weather records

Advertising

Tallahassee Weather History for the Previous 24 Hours

Scroll right to see more
 ConditionsComfort  
Time TempWeatherWind HumidityBarometerVisibility
9:53 AM
Sat, Jul 23
86 °FScattered clouds.No wind65%30.03 "Hg10 mi
8:53 AM82 °FScattered clouds.No wind79%30.02 "Hg10 mi
7:53 AM77 °FPartly sunny.No wind90%30.01 "Hg10 mi
6:53 AM74 °FPassing clouds.No wind94%30.00 "Hg10 mi
5:53 AM74 °FPassing clouds.No wind97%29.99 "Hg10 mi
4:53 AM75 °FClear.No wind94%N/A10 mi
3:53 AM75 °FClear.3 mph96%N/A10 mi
2:53 AM76 °FClear.No wind94%N/A10 mi
1:53 AM77 °FClear.6 mph94%N/A10 mi
12:53 AM78 °FClear.3 mph90%N/A10 mi
11:53 PM
Fri, Jul 22
78 °FClear.No wind90%N/A10 mi
10:53 PM79 °FClear.No wind90%30.05 "Hg10 mi
9:53 PM80 °FPassing clouds.No wind87%30.04 "Hg10 mi
8:53 PM81 °FPassing clouds.5 mph85%30.02 "Hg10 mi
7:53 PM84 °FBroken clouds.7 mph70%30.02 "Hg10 mi
6:53 PM83 °FBroken clouds.8 mph79%30.03 "Hg10 mi
5:53 PM83 °FBroken clouds.6 mph82%30.03 "Hg10 mi
4:53 PM81 °FPartly sunny.9 mph82%30.03 "Hg10 mi
3:53 PM84 °FRain. Mostly cloudy.16 mph80%30.05 "Hg4 mi
2:53 PM93 °FPartly sunny.8 mph50%30.06 "Hg10 mi
1:53 PM92 °FPartly sunny.8 mph52%30.08 "Hg10 mi
12:53 PM91 °FBroken clouds.No wind52%30.10 "Hg10 mi
11:53 AM89 °FPartly sunny.No wind55%30.10 "Hg10 mi
Weather by CustomWeather, © 2016

See weather overviewHow to use our weather pages